Simultaneous Nadir Overpasses (SNOs) Predictions

Prediction of SNOs between METOP-C and LANDSAT-8 Satellite Orbit:

Table of predicted SNOs for the next 14.0 days since TLE Epoch: 1/6/2024
Index Date (METOP-C) Time (METOP-C) Lat,Lon (METOP-C) SZA (METOP-C ) Date (LANDSAT-8) Time (LANDSAT-8) Lat,Lon (LANDSAT-8) SZA (LANDSAT-8 ) Distance(km) Time Diff (sec)
1 01/08/2024 16:09:55 81.12, -22.97 105.11 01/08/2024 16:10:40 81.12, -22.96 105.12 0.31 45
2 01/08/2024 17:00:33 -81.14, 145.10 74.82 01/08/2024 17:00:06 -81.14, 145.03 74.84 1.28 27
3 01/11/2024 11:44:17 81.13, 43.64 104.70 01/11/2024 11:44:56 81.13, 43.73 104.73 1.84 39
4 01/11/2024 12:34:56 -81.14,-148.64 75.27 01/11/2024 12:34:23 -81.14,-148.62 75.28 0.61 33
5 01/14/2024 07:18:39 81.12, 109.80 104.18 01/14/2024 07:19:12 81.12, 109.94 104.21 2.41 33
6 01/14/2024 08:09:17 -81.14, -82.07 75.74 01/14/2024 08:08:38 -81.15, -82.03 75.75 0.78 39
7 01/17/2024 02:53:01 81.12, 176.28 103.65 01/17/2024 02:53:28 81.12, 176.40 103.68 2.16 27
8 01/17/2024 03:43:39 -81.15, -15.56 76.26 01/17/2024 03:42:54 -81.15, -15.55 76.28 0.21 45
9 01/19/2024 22:27:22 81.13,-116.94 103.11 01/19/2024 22:27:43 81.14,-116.89 103.13 1.15 21



Historial Predications of SNOs between METOP-C and LANDSAT-8
